User: anonymous
Location: Mauna Kea VIS
(19.7591°N, 155.4561°W)
Time: 08:21:55
(UTC-10:00)
Language:

Cosmos 1624 Rocket - Orbit

View from above orbital plane
View from above orbital plane
View from above satellite
View from above satellite

Ground track
Ground track

The orbit data is extracted from the following two-line orbital elements,

1 15483U 85006B   14294.13208315  .00000362  00000-0  13356-3 0  3551
2 15483 074.0457 335.2541 0018925 199.3403 220.5695 14.35881389557306
Epoch (UTC): 21 October 2014 03:10:11
Eccentricity: 0.0018925
inclination: 74.0457°
perigee height: 758 km
apogee height: 785 km
right ascension of ascending node: 335.2541°
argument of perigee: 199.3403°
revolutions per day: 14.35881389
mean anomaly at epoch: 220.5695°
orbit number at epoch: 55730

The dashed part of the orbit path shows where the satellite is in the earth's shadow,  

DLR